Tracking 35274 objects as of 11-Sep-2026
HD Live streaming from Space Station
objects crossing your sky now

STARLINK-11719

Track STARLINK-11719 now!
10-day predictions
STARLINK-11719 is classified as:


NORAD ID: 64071
Int'l Code: 2025-107H
Launch date: May 21, 2025
Source: United States (US)
Launch site: AIR FORCE EASTERN TEST RANGE (AFETR)
Your satellite tracking list
Your tracking list is empty




NASA's NSSDC Master Catalog

Two Line Element Set (TLE):
1 64071U 25107H   26253.52560962  .00114080  00000-0  87941-3 0  9992
2 64071  42.9981  64.4807 0002229 198.7007 161.3779 15.70865383 76361
Source of the keplerian elements: AFSPC